| time (UTC) | temp C | wind direction | speed KPH | gust KPH | rain 1hr cm | rain 24hr cm | rain mn cm | humidity % | barometer mb |
| 20260507113530 | 12 | 210 | 14.5 | 20.9 | 0.00 | 0.00 | 0.00 | 19 | 982.8 |
| 20260507112630 | 12 | 304 | 12.9 | 17.7 | 0.00 | 0.00 | 0.00 | 20 | 982.9 |
| 20260507111730 | 12 | 233 | 16.1 | 20.9 | 0.00 | 0.00 | 0.00 | 21 | 982.8 |
| 20260507110831 | 12 | 218 | 14.5 | 20.9 | 0.00 | 0.00 | 0.00 | 19 | 982.7 |
| 20260507105030 | 12 | 210 | 12.9 | 17.7 | 0.00 | 0.00 | 0.00 | 20 | 982.6 |
| 20260507103229 | 12 | 259 | 9.7 | 17.7 | 0.00 | 0.00 | 0.00 | 21 | 982.6 |
| 20260507102331 | 11 | 217 | 12.9 | 17.7 | 0.00 | 0.00 | 0.00 | 24 | 982.6 |
| 20260507101430 | 11 | 284 | 11.3 | 17.7 | 0.00 | 0.00 | 0.00 | 22 | 982.6 |
| 20260507100530 | 11 | 282 | 14.5 | 17.7 | 0.00 | 0.00 | 0.00 | 23 | 982.5 |
| 20260507095629 | 11 | 272 | 12.9 | 17.7 | 0.00 | 0.00 | 0.00 | 23 | 982.5 |
| 20260507093831 | 11 | 259 | 12.9 | 17.7 | 0.00 | 0.00 | 0.00 | 27 | 982.3 |
| 20260507091130 | 10 | 294 | 11.3 | 16.1 | 0.00 | 0.00 | 0.00 | 27 | 982.5 |
| 20260507090230 | 11 | 292 | 8.0 | 16.1 | 0.00 | 0.00 | 0.00 | 28 | 982.3 |
| 20260507085330 | 11 | 267 | 6.4 | 12.9 | 0.00 | 0.00 | 0.00 | 29 | 982.3 |
| 20260507084448 | 11 | 188 | 8.0 | 12.9 | 0.00 | 0.00 | 0.00 | 27 | 982.5 |
| 20260507083530 | 10 | 287 | 8.0 | 12.9 | 0.00 | 0.00 | 0.00 | 30 | 982.5 |
| 20260507082635 | 10 | 257 | 8.0 | 16.1 | 0.00 | 0.00 | 0.00 | 31 | 982.4 |
| 20260507075930 | 10 | 315 | 4.8 | 11.3 | 0.00 | 0.00 | 0.00 | 36 | 982.1 |
| 20260507075030 | 10 | 288 | 4.8 | 8.0 | 0.00 | 0.00 | 0.00 | 37 | 982.1 |
| 20260507074130 | 10 | 245 | 6.4 | 8.0 | 0.00 | 0.00 | 0.00 | 38 | 982.0 |
| 20260507073230 | 10 | 298 | 8.0 | 11.3 | 0.00 | 0.00 | 0.00 | 40 | 982.1 |
| 20260507071430 | 10 | 319 | 4.8 | 9.7 | 0.00 | 0.00 | 0.00 | 38 | 982.1 |
| 20260507070530 | 10 | 8 | 3.2 | 8.0 | 0.00 | 0.00 | 0.00 | 39 | 981.9 |
| 20260507065630 | 10 | 38 | 3.2 | 6.4 | 0.00 | 0.00 | 0.00 | 39 | 982.1 |
| 20260507063830 | 10 | 321 | 4.8 | 6.4 | 0.00 | 0.00 | 0.00 | 40 | 981.9 |
| 20260507062930 | 10 | 18 | 3.2 | 3.2 | 0.00 | 0.00 | 0.00 | 41 | 981.7 |
| 20260507062030 | 9 | 30 | 3.2 | 6.4 | 0.00 | 0.00 | 0.00 | 42 | 981.7 |
| 20260507061130 | 10 | 50 | 3.2 | 3.2 | 0.00 | 0.00 | 0.00 | 43 | 981.7 |
| 20260507060230 | 8 | 54 | 3.2 | 4.8 | 0.00 | 0.00 | 0.00 | 46 | 981.6 |
| 20260507055330 | 7 | 30 | 3.2 | 3.2 | 0.00 | 0.00 | 0.00 | 47 | 981.5 |
| 20260507054431 | 6 | 49 | 3.2 | 6.4 | 0.00 | 0.00 | 0.00 | 49 | 981.4 |
| 20260507053530 | 6 | 33 | 4.8 | 6.4 | 0.00 | 0.00 | 0.00 | 51 | 981.5 |
| 20260507052631 | 5 | 39 | 6.4 | 6.4 | 0.00 | 0.00 | 0.00 | 52 | 981.4 |
| 20260507051730 | 4 | 40 | 6.4 | 8.0 | 0.00 | 0.00 | 0.00 | 52 | 981.5 |
| 20260507050831 | 3 | 10 | 6.4 | 8.0 | 0.00 | 0.00 | 0.00 | 52 | 981.4 |
| 20260507045930 | 4 | 65 | 4.8 | 6.4 | 0.00 | 0.00 | 0.00 | 51 | 981.3 |
| 20260507044130 | 3 | 101 | 4.8 | 6.4 | 0.00 | 0.00 | 0.00 | 53 | 981.0 |
| 20260507043230 | 2 | 61 | 6.4 | 6.4 | 0.00 | 0.00 | 0.00 | 56 | 981.0 |
| 20260507042331 | 2 | 65 | 6.4 | 9.7 | 0.00 | 0.00 | 0.00 | 56 | 980.9 |
| 20260507041430 | 2 | 66 | 6.4 | 6.4 | 0.00 | 0.00 | 0.00 | 56 | 981.0 |
| 20260507040530 | 2 | 90 | 8.0 | 8.0 | 0.00 | 0.00 | 0.00 | 58 | 980.8 |
| 20260507035630 | 2 | 86 | 6.4 | 8.0 | 0.00 | 0.00 | 0.00 | 58 | 980.9 |
| 20260507034730 | 1 | 93 | 6.4 | 8.0 | 0.00 | 0.00 | 0.00 | 59 | 980.7 |
| 20260507032030 | 0 | 93 | 6.4 | 8.0 | 0.00 | 0.00 | 0.00 | 65 | 980.5 |
| 20260507031131 | 0 | 120 | 6.4 | 6.4 | 0.00 | 0.00 | 0.00 | 66 | 980.5 |
| 20260507030230 | 0 | 119 | 6.4 | 6.4 | 0.00 | 0.00 | 0.00 | 68 | 980.5 |
| 20260507025331 | 0 | 121 | 4.8 | 6.4 | 0.00 | 0.00 | 0.00 | 69 | 980.4 |
| 20260507024431 | 0 | 102 | 4.8 | 6.4 | 0.00 | 0.00 | 0.00 | 68 | 980.4 |
| 20260507023530 | 0 | 89 | 4.8 | 6.4 | 0.00 | 0.00 | 0.00 | 66 | 980.4 |
| 20260507022630 | 0 | 85 | 3.2 | 6.4 | 0.00 | 0.00 | 0.00 | 64 | 980.5 |
| 20260507021730 | 1 | 96 | 1.6 | 3.2 | 0.00 | 0.00 | 0.00 | 61 | 980.4 |
| 20260507020831 | 1 | 139 | 1.6 | 3.2 | 0.00 | 0.00 | 0.00 | 60 | 980.4 |
| 20260507015930 | 2 | 117 | 3.2 | 4.8 | 0.00 | 0.00 | 0.00 | 59 | 980.2 |
| 20260507014131 | 2 | 133 | 6.4 | 8.0 | 0.00 | 0.00 | 0.00 | 61 | 980.1 |
| 20260507013230 | 1 | 125 | 6.4 | 8.0 | 0.00 | 0.00 | 0.00 | 62 | 980.1 |
| 20260507012330 | 1 | 113 | 4.8 | 6.4 | 0.00 | 0.00 | 0.00 | 64 | 980.1 |
| 20260507010530 | 1 | 52 | 1.6 | 3.2 | 0.00 | 0.00 | 0.00 | 67 | 979.9 |
| 20260507005630 | 1 | 150 | 1.6 | 3.2 | 0.00 | 0.00 | 0.00 | 67 | 979.8 |
| 20260507004730 | 1 | 181 | 3.2 | 4.8 | 0.00 | 0.00 | 0.00 | 69 | 979.7 |
| 20260507003831 | 0 | 181 | 4.8 | 4.8 | 0.00 | 0.00 | 0.00 | 70 | 979.8 |
| 20260507002030 | 1 | 334 | 3.2 | 3.2 | 0.00 | 0.00 | 0.00 | 63 | 979.5 |
| 20260507001131 | 3 | 123 | 4.8 | 6.4 | 0.00 | 0.00 | 0.00 | 59 | 979.4 |
| 20260506235330 | 3 | 120 | 6.4 | 8.0 | 0.00 | 0.00 | 0.00 | 59 | 979.0 |
| 20260506234430 | 3 | 94 | 6.4 | 6.4 | 0.00 | 0.00 | 0.00 | 58 | 979.1 |
| 20260506233530 | 3 | 77 | 6.4 | 8.0 | 0.00 | 0.00 | 0.00 | 58 | 979.0 |
| 20260506232630 | 3 | 87 | 6.4 | 8.0 | 0.00 | 0.00 | 0.00 | 59 | 979.0 |
| 20260506231730 | 3 | 89 | 6.4 | 9.7 | 0.00 | 0.00 | 0.00 | 60 | 979.0 |
| 20260506225030 | 2 | 90 | 4.8 | 6.4 | 0.00 | 0.00 | 0.00 | 65 | 978.9 |
| 20260506223230 | 2 | 45 | 6.4 | 8.0 | 0.00 | 0.00 | 0.00 | 64 | 978.8 |
| 20260506222330 | 3 | 30 | 1.6 | 6.4 | 0.00 | 0.00 | 0.00 | 61 | 978.8 |
| 20260506221430 | 3 | 100 | 3.2 | 3.2 | 0.00 | 0.00 | 0.00 | 60 | 978.7 |
| 20260506220530 | 4 | 125 | 1.6 | 3.2 | 0.00 | 0.00 | 0.00 | 58 | 978.6 |
| 20260506215630 | 4 | 94 | 3.2 | 4.8 | 0.00 | 0.00 | 0.00 | 58 | 978.5 |
| 20260506213831 | 5 | 13 | 3.2 | 6.4 | 0.00 | 0.00 | 0.00 | 58 | 978.6 |
| 20260506212930 | 5 | 130 | 4.8 | 6.4 | 0.00 | 0.00 | 0.00 | 56 | 978.5 |
| 20260506205331 | 5 | 86 | 3.2 | 4.8 | 0.00 | 0.00 | 0.00 | 57 | 978.6 |
| 20260506203530 | 5 | 34 | 6.4 | 9.7 | 0.00 | 0.00 | 0.00 | 59 | 978.3 |
| 20260506202630 | 6 | 160 | 6.4 | 8.0 | 0.00 | 0.00 | 0.00 | 55 | 978.2 |
| 20260506201730 | 6 | 171 | 8.0 | 12.9 | 0.00 | 0.00 | 0.00 | 56 | 978.2 |
| 20260506200831 | 6 | 175 | 12.9 | 12.9 | 0.00 | 0.00 | 0.00 | 53 | 978.1 |
| 20260506194131 | 6 | 151 | 9.7 | 12.9 | 0.00 | 0.00 | 0.00 | 56 | 978.0 |
| 20260506193230 | 6 | 169 | 9.7 | 12.9 | 0.00 | 0.00 | 0.00 | 55 | 978.0 |
| 20260506192331 | 6 | 172 | 11.3 | 14.5 | 0.00 | 0.00 | 0.00 | 54 | 978.2 |
| 20260506191430 | 7 | 164 | 8.0 | 12.9 | 0.00 | 0.00 | 0.00 | 51 | 978.0 |
| 20260506190530 | 7 | 142 | 11.3 | 17.7 | 0.00 | 0.00 | 0.00 | 47 | 977.9 |
| 20260506185630 | 7 | 184 | 9.7 | 12.9 | 0.00 | 0.00 | 0.00 | 45 | 977.9 |
| 20260506184730 | 8 | 228 | 11.3 | 12.9 | 0.00 | 0.00 | 0.00 | 42 | 977.9 |
| 20260506183831 | 8 | 251 | 12.9 | 24.1 | 0.00 | 0.00 | 0.00 | 34 | 977.8 |
| 20260506182030 | 8 | 204 | 8.0 | 12.9 | 0.00 | 0.00 | 0.00 | 37 | 977.5 |
| 20260506181131 | 8 | 223 | 14.5 | 19.3 | 0.00 | 0.00 | 0.00 | 38 | 977.6 |
| 20260506180230 | 8 | 213 | 12.9 | 24.1 | 0.00 | 0.00 | 0.00 | 38 | 977.7 |
| 20260506174430 | 8 | 127 | 6.4 | 6.4 | 0.00 | 0.00 | 0.00 | 38 | 977.5 |
| 20260506172630 | 9 | 248 | 3.2 | 8.0 | 0.00 | 0.00 | 0.00 | 35 | 977.4 |
| 20260506171730 | 9 | 76 | 3.2 | 4.8 | 0.00 | 0.00 | 0.00 | 32 | 977.4 |
| 20260506170831 | 9 | 285 | 8.0 | 16.1 | 0.00 | 0.00 | 0.00 | 32 | 977.2 |
| 20260506165930 | 10 | 307 | 8.0 | 16.1 | 0.00 | 0.00 | 0.00 | 32 | 977.2 |
| 20260506165030 | 10 | 232 | 6.4 | 11.3 | 0.00 | 0.00 | 0.00 | 34 | 977.2 |
| 20260506164130 | 10 | 198 | 8.0 | 12.9 | 0.00 | 0.00 | 0.00 | 31 | 977.2 |
| 20260506163230 | 10 | 275 | 9.7 | 16.1 | 0.00 | 0.00 | 0.00 | 34 | 977.2 |
| 20260506162330 | 10 | 269 | 8.0 | 12.9 | 0.00 | 0.00 | 0.00 | 33 | 977.2 |
| 20260506161430 | 10 | 231 | 11.3 | 17.7 | 0.00 | 0.00 | 0.00 | 32 | 977.2 |
| 20260506160530 | 10 | 197 | 11.3 | 16.1 | 0.00 | 0.00 | 0.00 | 32 | 977.2 |
| 20260506155630 | 10 | 242 | 8.0 | 12.9 | 0.00 | 0.00 | 0.00 | 28 | 977.0 |
| 20260506154730 | 10 | 260 | 4.8 | 8.0 | 0.00 | 0.00 | 0.00 | 27 | 977.1 |
| 20260506153830 | 10 | 198 | 8.0 | 12.9 | 0.00 | 0.00 | 0.00 | 30 | 977.3 |
| 20260506152930 | 11 | 191 | 9.7 | 12.9 | 0.00 | 0.00 | 0.00 | 31 | 977.2 |
| 20260506152030 | 10 | 190 | 12.9 | 16.1 | 0.00 | 0.00 | 0.00 | 31 | 977.3 |
| 20260506151130 | 10 | 206 | 16.1 | 22.5 | 0.00 | 0.00 | 0.00 | 33 | 977.1 |
| 20260506150230 | 10 | 212 | 16.1 | 22.5 | 0.00 | 0.00 | 0.00 | 31 | 977.2 |
| 20260506145330 | 11 | 195 | 9.7 | 11.3 | 0.00 | 0.00 | 0.00 | 27 | 977.3 |
| 20260506144430 | 11 | 225 | 11.3 | 16.1 | 0.00 | 0.00 | 0.00 | 26 | 977.4 |
| 20260506143530 | 12 | 209 | 11.3 | 12.9 | 0.00 | 0.00 | 0.00 | 25 | 977.4 |
| 20260506142630 | 11 | 213 | 9.7 | 14.5 | 0.00 | 0.00 | 0.00 | 27 | 977.4 |
| 20260506141730 | 11 | 215 | 11.3 | 14.5 | 0.00 | 0.00 | 0.00 | 25 | 977.4 |
| 20260506140831 | 11 | 273 | 6.4 | 16.1 | 0.00 | 0.00 | 0.00 | 26 | 977.5 |
| 20260506135930 | 12 | 261 | 6.4 | 9.7 | 0.00 | 0.00 | 0.00 | 26 | 977.6 |
| 20260506135030 | 12 | 304 | 8.0 | 12.9 | 0.00 | 0.00 | 0.00 | 27 | 977.7 |
| 20260506134130 | 11 | 328 | 6.4 | 11.3 | 0.00 | 0.00 | 0.00 | 29 | 977.6 |
| 20260506133230 | 10 | 291 | 9.7 | 12.9 | 0.00 | 0.00 | 0.00 | 28 | 977.7 |
| 20260506132330 | 11 | 271 | 9.7 | 14.5 | 0.00 | 0.00 | 0.00 | 28 | 977.9 |
| 20260506131431 | 11 | 295 | 9.7 | 12.9 | 0.00 | 0.00 | 0.00 | 28 | 978.0 |
| 20260506130530 | 12 | 286 | 12.9 | 14.5 | 0.00 | 0.00 | 0.00 | 26 | 978.0 |
| 20260506125630 | 11 | 223 | 16.1 | 22.5 | 0.00 | 0.00 | 0.00 | 26 | 978.0 |
| 20260506124730 | 12 | 192 | 14.5 | 17.7 | 0.00 | 0.00 | 0.00 | 25 | 978.0 |
| 20260506123830 | 12 | 175 | 12.9 | 22.5 | 0.00 | 0.00 | 0.00 | 26 | 977.9 |
| 20260506122030 | 10 | 244 | 11.3 | 14.5 | 0.00 | 0.00 | 0.00 | 29 | 978.4 |
| 20260506121131 | 11 | 188 | 12.9 | 14.5 | 0.00 | 0.00 | 0.00 | 28 | 978.2 |
| 20260506120230 | 11 | 219 | 14.5 | 17.7 | 0.00 | 0.00 | 0.00 | 29 | 978.4 |
| 20260506115330 | 11 | 237 | 14.5 | 24.1 | 0.00 | 0.00 | 0.00 | 27 | 978.4 |
| 20260506114430 | 11 | 231 | 9.7 | 17.7 | 0.00 | 0.00 | 0.00 | 29 | 978.3 |